Location: ????????
(60.4333°N, 46.4710°E)
Time: 03:51:36
(UTC+00:00)

Cosmos 2237 Rocket - Pass Details

Date: 25 November 2020
Orbit: 833 x 851 km, 71.0° (Epoch: 19 January)

Event Time Altitude Azimuth Distance (km) Brightness Sun altitude
Rises 17:33:32 0° 266° (W) 3,388 6.0 -38.7°
Reaches altitude 10° 17:36:13 10° 275° (W) 2,457 5.2 -39.0°
Enters shadow 17:39:10 26° 300° (WNW) 1,612 4.1 -39.3°
